Dades meteomassalio
Diari Summary for Gener 23, 2017 Units:  Metric    English   Both
« Previous Day
Next Day »
Diari Semanal Mensual Anual Personalitzat
  Maxima: Minima: Mijana:
Temperatura: 10.4 °C 4.6 °C 6.9 °C
Rosada: 4.1 °C 1.3 °C 2.8 °C
Humitat: 90 % 60 % 76 %
Velocitat del vent: 25.9 km/h 0.0 km/h 10.8 km/h
Racha vent: 25.9 km/h - -
Vent:- - WNW
Pressio: 1021.9 hPa 1018.8 hPa -
Pluja: 1.5 mm    
Historical Graphs
 
 
Tabular Data for Gener 23, 2017
Time Temperature Dew Point Pressure Wind Wind Speed Wind Gust Humidity Rainfall Rate (Hourly) solar Conditions
00:02 5.8 °C 3.5 °C 1020.2 hPa WNW 20.4 km/h 20.4 km/h 85 % 0.0 mm 0.0 W/m2 RA
00:07 5.8 °C 3.5 °C 1020.2 hPa WNW 14.8 km/h 14.8 km/h 85 % 0.0 mm 0.0 W/m2 CLR
00:12 5.7 °C 3.6 °C 1020.2 hPa WNW 13.0 km/h 13.0 km/h 86 % 0.0 mm 0.0 W/m2 CLR
00:17 5.7 °C 3.6 °C 1020.2 hPa WNW 16.7 km/h 16.7 km/h 86 % 0.0 mm 0.0 W/m2 CLR
00:22 5.7 °C 3.6 °C 1020.2 hPa WNW 11.1 km/h 11.1 km/h 86 % 0.0 mm 0.0 W/m2 CLR
00:27 5.8 °C 3.5 °C 1019.9 hPa WNW 22.2 km/h 22.2 km/h 85 % 0.0 mm 0.0 W/m2 CLR
00:28 5.8 °C 3.5 °C 1019.9 hPa WNW 22.2 km/h 22.2 km/h 85 % 0.0 mm 0.0 W/m2 CLR
00:33 5.9 °C 3.4 °C 1019.9 hPa WNW 20.4 km/h 20.4 km/h 84 % 0.0 mm 0.0 W/m2 CLR
00:38 6.0 °C 3.5 °C 1019.9 hPa WNW 19.3 km/h 19.3 km/h 84 % 0.0 mm 0.0 W/m2 CLR
00:43 6.0 °C 3.3 °C 1020.2 hPa West 20.4 km/h 20.4 km/h 83 % 0.0 mm 0.0 W/m2 CLR
00:48 5.9 °C 3.4 °C 1020.2 hPa WNW 13.0 km/h 13.0 km/h 84 % 0.0 mm 0.0 W/m2 CLR
00:53 5.9 °C 3.4 °C 1020.2 hPa West 8.0 km/h 8.0 km/h 84 % 0.0 mm 0.0 W/m2 CLR
00:58 5.8 °C 3.3 °C 1020.2 hPa West 8.0 km/h 8.0 km/h 84 % 0.0 mm 0.0 W/m2 CLR
01:03 5.8 °C 3.3 °C 1020.2 hPa Calm     84 % 0.0 mm 0.0 W/m2 CLR
01:08 5.8 °C 3.3 °C 1020.2 hPa Calm     84 % 0.0 mm 0.0 W/m2 CLR
01:13 5.8 °C 3.5 °C 1020.2 hPa Calm     85 % 0.3 mm 0.0 W/m2 RA
01:18 5.7 °C 3.4 °C 1020.2 hPa Calm     85 % 0.5 mm 0.0 W/m2 RA
01:23 5.7 °C 3.3 °C 1020.2 hPa Calm     85 % 0.5 mm 0.0 W/m2 CLR
01:28 5.6 °C 3.4 °C 1020.2 hPa Calm     86 % 0.5 mm 0.0 W/m2 CLR
01:33 5.5 °C 3.5 °C 1020.2 hPa Calm     87 % 0.5 mm 0.0 W/m2 CLR
01:38 5.4 °C 3.4 °C 1019.9 hPa Calm     87 % 0.5 mm 0.0 W/m2 CLR
01:43 5.3 °C 3.5 °C 1019.9 hPa Calm     88 % 0.5 mm 0.0 W/m2 CLR
01:48 5.2 °C 3.4 °C 1019.9 hPa Calm     88 % 0.5 mm 0.0 W/m2 CLR
01:53 5.2 °C 3.6 °C 1019.9 hPa Calm     89 % 0.5 mm 0.0 W/m2 CLR
01:58 5.1 °C 3.4 °C 1020.2 hPa Calm     89 % 0.5 mm 0.0 W/m2 CLR
02:03 5.1 °C 3.4 °C 1019.9 hPa Calm     89 % 0.5 mm 0.0 W/m2 CLR
02:08 5.0 °C 3.5 °C 1019.9 hPa Calm     90 % 0.5 mm 0.0 W/m2 CLR
02:13 4.9 °C 3.4 °C 1019.9 hPa Calm     90 % 0.3 mm 0.0 W/m2 CLR
02:18 4.9 °C 3.4 °C 1019.9 hPa Calm     90 % 0.0 mm 0.0 W/m2 CLR
02:23 4.9 °C 3.4 °C 1019.9 hPa Calm     90 % 0.0 mm 0.0 W/m2 CLR
02:28 4.9 °C 3.4 °C 1019.9 hPa Calm     90 % 0.0 mm 0.0 W/m2 CLR
02:33 4.9 °C 3.4 °C 1019.9 hPa Calm     90 % 0.0 mm 0.0 W/m2 CLR
02:38 5.0 °C 3.5 °C 1019.5 hPa Calm     90 % 0.0 mm 0.0 W/m2 CLR
02:43 5.0 °C 3.5 °C 1019.9 hPa Calm     90 % 0.0 mm 0.0 W/m2 CLR
02:48 5.1 °C 3.6 °C 1019.5 hPa Calm     90 % 0.0 mm 0.0 W/m2 CLR
02:53 5.1 °C 3.4 °C 1019.5 hPa Calm     89 % 0.0 mm 0.0 W/m2 CLR
02:58 5.1 °C 3.4 °C 1019.5 hPa Calm     89 % 0.0 mm 0.0 W/m2 CLR
03:03 5.2 °C 3.3 °C 1019.5 hPa Calm     88 % 0.0 mm 0.0 W/m2 CLR
03:08 5.1 °C 3.3 °C 1019.5 hPa Calm     88 % 0.0 mm 0.0 W/m2 CLR
03:13 5.1 °C 3.2 °C 1019.5 hPa Calm     88 % 0.0 mm 0.0 W/m2 CLR
03:18 5.1 °C 3.2 °C 1019.5 hPa Calm     88 % 0.0 mm 0.0 W/m2 CLR
03:23 5.1 °C 3.2 °C 1019.5 hPa Calm     88 % 0.0 mm 0.0 W/m2 CLR
03:28 5.1 °C 3.2 °C 1019.5 hPa Calm     88 % 0.0 mm 0.0 W/m2 CLR
03:33 5.0 °C 3.0 °C 1019.5 hPa Calm     87 % 0.0 mm 0.0 W/m2 CLR
03:38 4.8 °C 3.0 °C 1019.5 hPa Calm     88 % 0.0 mm 0.0 W/m2 CLR
03:43 4.8 °C 3.0 °C 1019.5 hPa Calm     88 % 0.0 mm 0.0 W/m2 CLR
03:48 4.8 °C 2.9 °C 1019.5 hPa Calm     88 % 0.0 mm 0.0 W/m2 CLR
03:53 4.8 °C 2.9 °C 1019.5 hPa Calm     88 % 0.0 mm 0.0 W/m2 CLR
03:58 4.8 °C 3.0 °C 1019.5 hPa Calm     88 % 0.0 mm 0.0 W/m2 CLR
04:03 4.8 °C 2.9 °C 1019.5 hPa Calm     88 % 0.0 mm 0.0 W/m2 CLR
04:08 4.7 °C 2.9 °C 1019.5 hPa Calm     88 % 0.0 mm 0.0 W/m2 CLR
04:13 4.6 °C 2.8 °C 1019.5 hPa Calm     88 % 0.0 mm 0.0 W/m2 CLR
04:18 4.6 °C 2.8 °C 1019.5 hPa Calm     88 % 0.0 mm 0.0 W/m2 CLR
04:23 4.6 °C 2.8 °C 1019.5 hPa Calm     88 % 0.0 mm 0.0 W/m2 CLR
04:28 4.6 °C 2.8 °C 1019.5 hPa Calm     88 % 0.0 mm 0.0 W/m2 CLR
04:33 4.7 °C 2.8 °C 1019.2 hPa Calm     88 % 0.0 mm 0.0 W/m2 CLR
04:38 4.8 °C 2.9 °C 1019.2 hPa Calm     88 % 0.0 mm 0.0 W/m2 CLR
04:43 4.8 °C 2.8 °C 1019.2 hPa Calm     87 % 0.0 mm 0.0 W/m2 CLR
04:48 4.8 °C 2.8 °C 1019.2 hPa Calm     87 % 0.0 mm 0.0 W/m2 CLR
04:53 4.8 °C 2.8 °C 1019.2 hPa Calm     87 % 0.0 mm 0.0 W/m2 CLR
04:58 4.8 °C 2.8 °C 1019.2 hPa Calm     87 % 0.0 mm 0.0 W/m2 CLR
05:03 4.8 °C 2.7 °C 1019.5 hPa Calm     86 % 0.0 mm 0.0 W/m2 CLR
05:08 4.9 °C 2.9 °C 1019.2 hPa Calm     87 % 0.0 mm 0.0 W/m2 CLR
05:13 4.9 °C 2.9 °C 1019.5 hPa Calm     87 % 0.0 mm 0.0 W/m2 CLR
05:18 4.9 °C 2.7 °C 1019.5 hPa Calm     86 % 0.0 mm 0.0 W/m2 CLR
05:23 4.9 °C 2.7 °C 1019.5 hPa Calm     86 % 0.0 mm 0.0 W/m2 CLR
05:28 5.1 °C 2.7 °C 1019.5 hPa Calm     85 % 0.0 mm 0.0 W/m2 CLR
05:33 5.1 °C 2.7 °C 1019.5 hPa Calm     85 % 0.0 mm 0.0 W/m2 CLR
05:39 5.1 °C 2.6 °C 1019.2 hPa Calm     84 % 0.0 mm 0.0 W/m2 CLR
05:44 5.1 °C 2.6 °C 1019.2 hPa Calm     84 % 0.0 mm 0.0 W/m2 CLR
05:49 5.1 °C 2.6 °C 1019.2 hPa Calm     84 % 0.0 mm 0.0 W/m2 CLR
05:54 5.1 °C 2.6 °C 1019.2 hPa WSW 3.7 km/h 3.7 km/h 84 % 0.0 mm 0.0 W/m2 CLR
05:59 5.0 °C 2.5 °C 1019.2 hPa WSW 9.7 km/h 9.7 km/h 84 % 0.0 mm 0.0 W/m2 CLR
06:04 5.1 °C 2.6 °C 1019.2 hPa WSW 5.6 km/h 5.6 km/h 84 % 0.0 mm 0.0 W/m2 CLR
06:09 5.1 °C 2.6 °C 1019.5 hPa Calm     84 % 0.0 mm 0.0 W/m2 CLR
06:14 5.0 °C 2.5 °C 1019.5 hPa Calm     84 % 0.0 mm 0.0 W/m2 CLR
06:19 5.0 °C 2.3 °C 1019.5 hPa SW 5.6 km/h 5.6 km/h 83 % 0.0 mm 0.0 W/m2 CLR
06:24 5.1 °C 2.4 °C 1019.2 hPa WSW 9.3 km/h 9.3 km/h 83 % 0.0 mm 0.0 W/m2 CLR
06:29 5.2 °C 2.3 °C 1019.5 hPa WSW 11.1 km/h 11.1 km/h 82 % 0.0 mm 0.0 W/m2 CLR
06:34 5.1 °C 2.3 °C 1019.2 hPa WSW 5.6 km/h 5.6 km/h 82 % 0.0 mm 0.0 W/m2 CLR
06:39 5.1 °C 2.3 °C 1019.2 hPa WSW 12.9 km/h 12.9 km/h 82 % 0.0 mm 0.0 W/m2 CLR
06:44 5.1 °C 2.4 °C 1019.5 hPa Calm     83 % 0.0 mm 0.0 W/m2 CLR
06:49 5.1 °C 2.4 °C 1019.9 hPa Calm     83 % 0.0 mm 0.0 W/m2 CLR
06:54 5.0 °C 2.3 °C 1020.2 hPa Calm     83 % 0.0 mm 0.0 W/m2 CLR
06:59 5.0 °C 2.5 °C 1020.2 hPa Calm     84 % 0.0 mm 0.0 W/m2 CLR
07:04 4.9 °C 2.4 °C 1020.2 hPa Calm     84 % 0.0 mm 0.0 W/m2 CLR
07:09 4.9 °C 2.4 °C 1020.2 hPa Calm     84 % 0.0 mm 0.0 W/m2 CLR
07:14 4.9 °C 2.4 °C 1020.2 hPa Calm     84 % 0.0 mm 0.0 W/m2 CLR
07:19 4.9 °C 2.4 °C 1020.2 hPa Calm     84 % 0.0 mm 0.0 W/m2 CLR
07:24 4.9 °C 2.4 °C 1020.5 hPa Calm     84 % 0.0 mm 0.0 W/m2 CLR
07:29 4.8 °C 2.3 °C 1020.5 hPa Calm     84 % 0.0 mm 0.0 W/m2 CLR
07:34 4.8 °C 2.3 °C 1020.5 hPa Calm     84 % 0.0 mm 0.0 W/m2 CLR
07:39 4.9 °C 2.4 °C 1020.5 hPa Calm     84 % 0.0 mm 0.0 W/m2 CLR
07:44 4.9 °C 2.4 °C 1020.5 hPa Calm     84 % 0.0 mm 0.0 W/m2 CLR
07:49 4.9 °C 2.4 °C 1020.9 hPa Calm     84 % 0.0 mm 0.0 W/m2 CLR
07:54 4.9 °C 2.4 °C 1020.9 hPa Calm     84 % 0.0 mm 0.0 W/m2 CLR
07:59 4.9 °C 2.4 °C 1020.9 hPa Calm     84 % 0.0 mm 0.0 W/m2 CLR
08:04 4.9 °C 2.4 °C 1020.9 hPa Calm     84 % 0.0 mm 0.0 W/m2 CLR
08:09 4.9 °C 2.4 °C 1020.9 hPa Calm     84 % 0.3 mm 0.0 W/m2 RA
08:14 4.9 °C 2.4 °C 1020.9 hPa West 16.7 km/h 16.7 km/h 84 % 0.3 mm 0.0 W/m2
08:19 4.9 °C 2.4 °C 1020.9 hPa West 11.1 km/h 11.1 km/h 84 % 0.5 mm 0.0 W/m2 RA
08:24 4.9 °C 2.6 °C 1020.9 hPa Calm     85 % 0.5 mm 0.0 W/m2
08:29 4.8 °C 2.6 °C 1020.9 hPa Calm     86 % 0.5 mm 12.0 W/m2 BKN
08:34 4.7 °C 2.7 °C 1020.9 hPa Calm     87 % 0.5 mm 26.0 W/m2 BKN
08:39 4.7 °C 2.7 °C 1020.9 hPa WSW 11.1 km/h 11.1 km/h 87 % 0.5 mm 30.0 W/m2 BKN
08:44 4.7 °C 2.7 °C 1020.9 hPa WNW 14.8 km/h 14.8 km/h 87 % 0.5 mm 25.0 W/m2 BKN
08:49 4.8 °C 2.8 °C 1020.9 hPa WNW 13.0 km/h 13.0 km/h 87 % 0.5 mm 23.0 W/m2 BKN
08:54 4.8 °C 2.8 °C 1020.9 hPa WNW 16.7 km/h 16.7 km/h 87 % 0.5 mm 21.0 W/m2 BKN
08:59 4.8 °C 2.8 °C 1020.9 hPa WNW 13.0 km/h 13.0 km/h 87 % 0.5 mm 23.0 W/m2 RA
09:04 4.9 °C 2.9 °C 1020.9 hPa WNW 18.5 km/h 18.5 km/h 87 % 0.5 mm 33.0 W/m2 BKN
09:09 4.9 °C 2.8 °C 1020.9 hPa West 18.5 km/h 18.5 km/h 86 % 0.5 mm 37.0 W/m2 BKN
09:14 5.0 °C 3.0 °C 1020.9 hPa WNW 16.7 km/h 16.7 km/h 87 % 0.5 mm 44.0 W/m2 BKN
09:19 5.0 °C 3.0 °C 1020.9 hPa WNW 20.4 km/h 20.4 km/h 87 % 0.3 mm 58.0 W/m2 BKN
09:24 5.0 °C 3.0 °C 1020.9 hPa WNW 18.5 km/h 18.5 km/h 87 % 0.3 mm 70.0 W/m2 BKN
09:29 5.1 °C 3.1 °C 1021.2 hPa WNW 19.3 km/h 19.3 km/h 87 % 0.3 mm 77.0 W/m2 BKN
09:34 5.2 °C 3.0 °C 1021.2 hPa WNW 16.7 km/h 16.7 km/h 86 % 0.3 mm 69.0 W/m2 BKN
09:39 5.3 °C 3.1 °C 1020.9 hPa WNW 18.5 km/h 18.5 km/h 86 % 0.3 mm 69.0 W/m2 BKN
09:44 5.3 °C 3.0 °C 1021.2 hPa WNW 18.5 km/h 18.5 km/h 85 % 0.3 mm 62.0 W/m2 BKN
09:49 5.4 °C 3.1 °C 1021.2 hPa WNW 18.5 km/h 18.5 km/h 85 % 0.3 mm 69.0 W/m2 BKN
09:54 5.5 °C 3.2 °C 1020.9 hPa WNW 18.5 km/h 18.5 km/h 85 % 0.3 mm 74.0 W/m2 BKN
09:59 5.6 °C 3.2 °C 1020.9 hPa West 20.4 km/h 20.4 km/h 85 % 0.0 mm 90.0 W/m2 BKN
10:04 5.6 °C 3.1 °C 1021.2 hPa WNW 20.4 km/h 20.4 km/h 84 % 0.0 mm 88.0 W/m2 BKN
10:09 5.8 °C 3.1 °C 1020.9 hPa WNW 18.5 km/h 18.5 km/h 83 % 0.0 mm 142.0 W/m2 BKN
10:14 5.9 °C 3.1 °C 1020.9 hPa West 20.9 km/h 20.9 km/h 82 % 0.0 mm 125.0 W/m2 BKN
10:19 6.0 °C 3.2 °C 1020.9 hPa West 25.9 km/h 25.9 km/h 82 % 0.0 mm 83.0 W/m2 BKN
10:24 6.1 °C 3.2 °C 1021.2 hPa WNW 18.5 km/h 18.5 km/h 82 % 0.0 mm 97.0 W/m2 BKN
10:29 6.1 °C 3.1 °C 1021.2 hPa WNW 20.4 km/h 20.4 km/h 81 % 0.0 mm 109.0 W/m2 BKN
10:34 6.1 °C 3.2 °C 1021.2 hPa WNW 19.3 km/h 19.3 km/h 82 % 0.0 mm 155.0 W/m2 BKN
10:39 6.2 °C 3.2 °C 1021.2 hPa WNW 25.7 km/h 25.7 km/h 81 % 0.0 mm 174.0 W/m2 BKN
10:44 6.3 °C 3.3 °C 1020.9 hPa WNW 22.5 km/h 22.5 km/h 81 % 0.0 mm 216.0 W/m2 BKN
10:49 6.4 °C 3.4 °C 1021.2 hPa WNW 22.5 km/h 22.5 km/h 81 % 0.0 mm 246.0 W/m2 BKN
10:54 6.7 °C 3.4 °C 1021.2 hPa WNW 20.4 km/h 20.4 km/h 80 % 0.0 mm 162.0 W/m2 SCT
10:59 6.7 °C 3.4 °C 1020.9 hPa WNW 20.4 km/h 20.4 km/h 80 % 0.0 mm 155.0 W/m2 BKN
11:04 6.6 °C 3.2 °C 1021.2 hPa WNW 18.5 km/h 18.5 km/h 79 % 0.0 mm 144.0 W/m2 BKN
11:09 6.6 °C 3.2 °C 1021.2 hPa WNW 22.5 km/h 22.5 km/h 79 % 0.0 mm 163.0 W/m2 BKN
11:14 6.7 °C 3.3 °C 1021.2 hPa WNW 18.5 km/h 18.5 km/h 79 % 0.0 mm 114.0 W/m2 BKN
11:19 6.7 °C 3.2 °C 1021.2 hPa WNW 20.4 km/h 20.4 km/h 78 % 0.0 mm 100.0 W/m2 BKN
11:24 6.8 °C 3.2 °C 1021.2 hPa WNW 24.1 km/h 24.1 km/h 78 % 0.0 mm 107.0 W/m2 BKN
11:29 6.9 °C 3.3 °C 1021.2 hPa WNW 16.7 km/h 16.7 km/h 78 % 0.0 mm 130.0 W/m2 BKN
11:34 7.0 °C 3.4 °C 1021.2 hPa WNW 18.5 km/h 18.5 km/h 78 % 0.0 mm 139.0 W/m2 BKN
11:40 7.1 °C 3.2 °C 1021.2 hPa WNW 25.9 km/h 25.9 km/h 76 % 0.0 mm 135.0 W/m2 BKN
11:44 7.2 °C 3.1 °C 1021.2 hPa WNW 22.2 km/h 22.2 km/h 75 % 0.0 mm 125.0 W/m2 BKN
11:50 7.2 °C 3.3 °C 1021.2 hPa WNW 16.7 km/h 16.7 km/h 76 % 0.0 mm 158.0 W/m2 BKN
11:55 7.3 °C 3.4 °C 1021.2 hPa WNW 18.5 km/h 18.5 km/h 76 % 0.0 mm 162.0 W/m2 BKN
12:00 7.4 °C 3.4 °C 1020.9 hPa WNW 18.5 km/h 18.5 km/h 76 % 0.0 mm 155.0 W/m2 BKN
12:05 7.3 °C 3.2 °C 1020.9 hPa WNW 24.1 km/h 24.1 km/h 75 % 0.0 mm 142.0 W/m2 BKN
12:10 7.4 °C 3.2 °C 1020.9 hPa WNW 20.4 km/h 20.4 km/h 75 % 0.0 mm 148.0 W/m2 BKN
12:15 7.4 °C 3.2 °C 1020.9 hPa WNW 18.5 km/h 18.5 km/h 75 % 0.0 mm 158.0 W/m2 BKN
12:20 7.4 °C 3.3 °C 1020.9 hPa WNW 14.8 km/h 14.8 km/h 75 % 0.0 mm 148.0 W/m2 BKN
12:25 7.5 °C 3.2 °C 1020.9 hPa WNW 18.5 km/h 18.5 km/h 74 % 0.0 mm 160.0 W/m2 BKN
12:30 7.6 °C 3.2 °C 1020.9 hPa WNW 16.7 km/h 16.7 km/h 74 % 0.0 mm 171.0 W/m2 BKN
12:35 7.6 °C 3.2 °C 1020.9 hPa NW 19.3 km/h 19.3 km/h 74 % 0.0 mm 158.0 W/m2 BKN
12:40 7.6 °C 3.0 °C 1020.9 hPa WNW 16.7 km/h 16.7 km/h 73 % 0.0 mm 135.0 W/m2 BKN
12:45 7.6 °C 3.0 °C 1020.9 hPa WNW 16.7 km/h 16.7 km/h 73 % 0.0 mm 123.0 W/m2 BKN
12:50 7.6 °C 2.8 °C 1020.5 hPa WNW 7.4 km/h   72 % 0.0 mm 144.0 W/m2 BKN
12:55 7.6 °C 3.1 °C 1020.5 hPa Calm     73 % 0.0 mm 197.0 W/m2 BKN
13:00 7.7 °C 3.2 °C 1020.5 hPa NW 22.2 km/h 22.2 km/h 73 % 0.0 mm 248.0 W/m2 BKN
13:05 7.8 °C 3.2 °C 1020.5 hPa WNW 14.8 km/h 14.8 km/h 73 % 0.0 mm 216.0 W/m2 BKN
13:10 7.9 °C 3.2 °C 1020.5 hPa West 16.7 km/h 16.7 km/h 72 % 0.0 mm 183.0 W/m2 BKN
13:15 7.9 °C 3.0 °C 1020.5 hPa NW 24.1 km/h 24.1 km/h 71 % 0.0 mm 176.0 W/m2 BKN
13:20 8.0 °C 3.4 °C 1020.2 hPa NW 18.5 km/h 18.5 km/h 73 % 0.0 mm 241.0 W/m2 BKN
13:25 8.1 °C 3.3 °C 1020.2 hPa WNW 18.5 km/h 18.5 km/h 72 % 0.0 mm 285.0 W/m2 BKN
13:30 8.1 °C 3.2 °C 1020.2 hPa WNW 16.7 km/h 16.7 km/h 71 % 0.0 mm 264.0 W/m2 SCT
13:35 8.2 °C 3.2 °C 1019.9 hPa WNW 9.7 km/h 9.7 km/h 71 % 0.0 mm 230.0 W/m2 SCT
13:40 8.3 °C 3.5 °C 1019.9 hPa WNW 18.5 km/h 18.5 km/h 72 % 0.0 mm 322.0 W/m2 SCT
13:45 8.4 °C 3.6 °C 1019.5 hPa WNW 14.8 km/h 14.8 km/h 72 % 0.0 mm 262.0 W/m2 SCT
13:50 8.4 °C 3.7 °C 1019.5 hPa WNW 13.0 km/h 13.0 km/h 72 % 0.0 mm 211.0 W/m2 SCT
13:55 8.5 °C 3.7 °C 1019.5 hPa West 14.8 km/h 14.8 km/h 72 % 0.0 mm 230.0 W/m2 BKN
14:00 8.6 °C 3.4 °C 1019.5 hPa WNW 14.8 km/h 14.8 km/h 70 % 0.0 mm 234.0 W/m2 BKN
14:05 8.6 °C 3.8 °C 1019.5 hPa WNW 13.0 km/h 13.0 km/h 72 % 0.0 mm 244.0 W/m2 SCT
14:10 8.6 °C 3.2 °C 1019.2 hPa WNW 16.7 km/h 16.7 km/h 69 % 0.0 mm 221.0 W/m2 SCT
14:15 8.7 °C 3.6 °C 1019.2 hPa WNW 14.8 km/h 14.8 km/h 70 % 0.0 mm 262.0 W/m2 SCT
14:20 8.8 °C 3.8 °C 1019.2 hPa WNW 14.8 km/h 14.8 km/h 71 % 0.0 mm 267.0 W/m2 SCT
14:25 8.9 °C 3.5 °C 1019.2 hPa NW 14.8 km/h 14.8 km/h 69 % 0.0 mm 232.0 W/m2 SCT
14:30 8.9 °C 3.5 °C 1019.2 hPa NW 18.5 km/h 18.5 km/h 69 % 0.0 mm 345.0 W/m2 SCT
14:35 9.0 °C 3.6 °C 1018.8 hPa NW 16.7 km/h 16.7 km/h 69 % 0.0 mm 316.0 W/m2 FEW
14:40 9.2 °C 3.3 °C 1018.8 hPa WNW 18.5 km/h 18.5 km/h 67 % 0.0 mm 334.0 W/m2 CLR
14:45 9.3 °C 3.7 °C 1018.8 hPa WNW 18.5 km/h 18.5 km/h 68 % 0.0 mm 299.0 W/m2 CLR
14:50 9.3 °C 3.7 °C 1019.2 hPa WNW 14.8 km/h 14.8 km/h 68 % 0.0 mm 202.0 W/m2 FEW
14:55 9.3 °C 4.1 °C 1019.2 hPa WNW 13.0 km/h 13.0 km/h 70 % 0.0 mm 209.0 W/m2 SCT
15:00 9.2 °C 3.6 °C 1019.2 hPa NW 17.7 km/h 17.7 km/h 68 % 0.0 mm 232.0 W/m2 SCT
15:05 9.2 °C 3.6 °C 1018.8 hPa NW 18.5 km/h 18.5 km/h 68 % 0.0 mm 206.0 W/m2 SCT
15:10 9.2 °C 3.8 °C 1018.8 hPa NW 9.3 km/h 9.3 km/h 69 % 0.0 mm 174.0 W/m2 SCT
15:15 9.2 °C 3.6 °C 1018.8 hPa WNW 14.8 km/h 14.8 km/h 68 % 0.0 mm 178.0 W/m2 SCT
15:20 9.2 °C 3.8 °C 1018.8 hPa NW 9.3 km/h 9.3 km/h 69 % 0.0 mm 181.0 W/m2 SCT
15:25 9.3 °C 3.7 °C 1018.8 hPa NW 13.0 km/h 13.0 km/h 68 % 0.0 mm 167.0 W/m2 SCT
15:30 9.3 °C 3.5 °C 1018.8 hPa WNW 11.1 km/h 11.1 km/h 67 % 0.0 mm 174.0 W/m2 SCT
15:35 9.3 °C 3.3 °C 1018.8 hPa WNW 22.2 km/h 22.2 km/h 66 % 0.0 mm 190.0 W/m2 SCT
15:40 9.3 °C 3.3 °C 1018.8 hPa NW 18.5 km/h 18.5 km/h 66 % 0.0 mm 172.0 W/m2 FEW
15:45 9.3 °C 3.5 °C 1018.8 hPa NW 14.8 km/h 14.8 km/h 67 % 0.0 mm 148.0 W/m2 FEW
15:50 9.3 °C 3.7 °C 1018.8 hPa WNW 16.1 km/h 16.1 km/h 68 % 0.0 mm 118.0 W/m2 SCT
15:55 9.3 °C 3.7 °C 1018.8 hPa WNW 14.8 km/h 14.8 km/h 68 % 0.0 mm 132.0 W/m2 SCT
16:00 9.3 °C 3.5 °C 1018.8 hPa WNW 16.7 km/h 16.7 km/h 67 % 0.0 mm 153.0 W/m2 FEW
16:05 9.4 °C 3.6 °C 1018.8 hPa WNW 14.8 km/h 14.8 km/h 67 % 0.0 mm 197.0 W/m2 CLR
16:10 9.5 °C 3.7 °C 1018.8 hPa WNW 14.8 km/h 14.8 km/h 67 % 0.0 mm 218.0 W/m2 CLR
16:15 9.7 °C 3.7 °C 1019.2 hPa WNW 12.9 km/h 12.9 km/h 66 % 0.0 mm 227.0 W/m2 CLR
16:20 9.9 °C 3.8 °C 1018.8 hPa WNW 8.0 km/h 8.0 km/h 66 % 0.0 mm 230.0 W/m2 CLR
16:25 9.9 °C 3.8 °C 1018.8 hPa WNW 14.8 km/h 14.8 km/h 66 % 0.0 mm 209.0 W/m2 CLR
16:30 10.0 °C 3.7 °C 1018.8 hPa WNW 16.7 km/h 16.7 km/h 65 % 0.0 mm 264.0 W/m2 CLR
16:35 10.2 °C 3.9 °C 1018.8 hPa WNW 13.0 km/h 13.0 km/h 65 % 0.0 mm 260.0 W/m2 CLR
16:40 10.3 °C 4.1 °C 1018.8 hPa WNW 13.0 km/h 13.0 km/h 65 % 0.0 mm 199.0 W/m2 CLR
16:45 10.3 °C 3.8 °C 1018.8 hPa WNW 14.8 km/h 14.8 km/h 64 % 0.3 mm 146.0 W/m2 RA
16:50 10.2 °C 3.7 °C 1018.8 hPa WNW 9.7 km/h 9.7 km/h 64 % 0.3 mm 158.0 W/m2 CLR
16:55 10.3 °C 4.0 °C 1018.8 hPa WNW 14.8 km/h 14.8 km/h 65 % 0.3 mm 156.0 W/m2 SCT
17:00 10.3 °C 3.8 °C 1018.8 hPa WNW 9.3 km/h 9.3 km/h 64 % 0.3 mm 130.0 W/m2 OVC
17:05 10.4 °C 3.9 °C 1018.8 hPa WNW 14.8 km/h 14.8 km/h 64 % 0.3 mm 111.0 W/m2 OVC
17:10 10.3 °C 3.6 °C 1018.8 hPa WNW 13.0 km/h 13.0 km/h 63 % 0.3 mm 95.0 W/m2 OVC
17:15 10.2 °C 3.3 °C 1018.8 hPa WNW 16.7 km/h 16.7 km/h 62 % 0.3 mm 90.0 W/m2 OVC
17:20 10.2 °C 3.0 °C 1018.8 hPa WNW 13.0 km/h 13.0 km/h 61 % 0.3 mm 84.0 W/m2 OVC
17:25 10.2 °C 3.5 °C 1018.8 hPa West 13.0 km/h 13.0 km/h 63 % 0.3 mm 76.0 W/m2 OVC
17:30 10.2 °C 3.3 °C 1018.8 hPa West 11.1 km/h 11.1 km/h 62 % 0.3 mm 51.0 W/m2 OVC
17:35 10.2 °C 3.4 °C 1018.8 hPa West 13.0 km/h 13.0 km/h 63 % 0.3 mm 30.0 W/m2 OVC
17:40 10.1 °C 3.3 °C 1018.8 hPa West 7.4 km/h 7.4 km/h 63 % 0.3 mm 18.0 W/m2 OVC
17:45 10.0 °C 3.3 °C 1018.8 hPa West 11.1 km/h 11.1 km/h 63 % 0.0 mm 11.0 W/m2 OVC
17:50 9.9 °C 3.0 °C 1018.8 hPa Calm     62 % 0.0 mm 7.0 W/m2 OVC
17:55 9.8 °C 2.7 °C 1019.2 hPa West 9.3 km/h 9.3 km/h 61 % 0.0 mm 5.0 W/m2 OVC
18:01 9.8 °C 2.7 °C 1019.2 hPa West 13.0 km/h 13.0 km/h 61 % 0.0 mm 0.0 W/m2 OVC
18:06 9.7 °C 2.6 °C 1019.2 hPa West 6.4 km/h 6.4 km/h 61 % 0.0 mm 0.0 W/m2 OVC
18:11 9.7 °C 2.3 °C 1019.2 hPa West 9.3 km/h 9.5 km/h 60 % 0.0 mm 0.0 W/m2 CLR
18:16 9.7 °C 2.3 °C 1019.2 hPa West 9.3 km/h 9.3 km/h 60 % 0.0 mm 0.0 W/m2 CLR
18:21 9.6 °C 2.2 °C 1019.2 hPa West 13.0 km/h 13.0 km/h 60 % 0.0 mm 0.0 W/m2 CLR
18:26 9.6 °C 2.2 °C 1019.5 hPa West 7.4 km/h 7.4 km/h 60 % 0.0 mm 0.0 W/m2 CLR
18:31 9.5 °C 2.1 °C 1019.5 hPa West 11.1 km/h 11.1 km/h 60 % 0.0 mm 0.0 W/m2 CLR
18:36 9.4 °C 2.1 °C 1019.5 hPa West 18.5 km/h 18.5 km/h 60 % 0.0 mm 0.0 W/m2 CLR
18:41 9.4 °C 2.0 °C 1019.5 hPa WNW 14.8 km/h 14.8 km/h 60 % 0.0 mm 0.0 W/m2 CLR
18:46 9.3 °C 1.9 °C 1019.5 hPa WNW 13.0 km/h 13.0 km/h 60 % 0.0 mm 0.0 W/m2 CLR
18:51 9.4 °C 2.0 °C 1019.5 hPa WNW 20.4 km/h 20.4 km/h 60 % 0.0 mm 0.0 W/m2 CLR
18:56 9.4 °C 2.0 °C 1019.5 hPa West 16.7 km/h 16.7 km/h 60 % 0.0 mm 0.0 W/m2 CLR
19:01 9.3 °C 1.9 °C 1019.5 hPa West 20.4 km/h 20.4 km/h 60 % 0.0 mm 0.0 W/m2 CLR
19:06 9.3 °C 1.9 °C 1019.9 hPa West 13.0 km/h 13.0 km/h 60 % 0.0 mm 0.0 W/m2 CLR
19:11 9.2 °C 2.1 °C 1019.9 hPa West 24.1 km/h 24.1 km/h 61 % 0.0 mm 0.0 W/m2 CLR
19:16 9.1 °C 1.9 °C 1019.9 hPa West 16.7 km/h 16.7 km/h 61 % 0.0 mm 0.0 W/m2 CLR
19:21 9.1 °C 1.9 °C 1019.9 hPa West 18.5 km/h 18.5 km/h 61 % 0.0 mm 0.0 W/m2 CLR
19:26 8.9 °C 2.1 °C 1019.9 hPa West 14.8 km/h 14.8 km/h 62 % 0.0 mm 0.0 W/m2 CLR
19:31 8.9 °C 2.0 °C 1019.9 hPa West 20.9 km/h 20.9 km/h 62 % 0.0 mm 0.0 W/m2 CLR
19:36 8.8 °C 2.2 °C 1019.9 hPa WNW 18.5 km/h 18.5 km/h 63 % 0.0 mm 0.0 W/m2 CLR
19:41 8.7 °C 2.1 °C 1019.9 hPa WNW 20.4 km/h 20.4 km/h 63 % 0.0 mm 0.0 W/m2 CLR
19:46 8.7 °C 1.8 °C 1020.2 hPa West 20.4 km/h 20.4 km/h 62 % 0.0 mm 0.0 W/m2 CLR
19:51 8.7 °C 1.8 °C 1019.9 hPa West 14.5 km/h 14.5 km/h 62 % 0.0 mm 0.0 W/m2 CLR
19:56 8.6 °C 1.7 °C 1020.2 hPa West 16.7 km/h 16.7 km/h 62 % 0.0 mm 0.0 W/m2 CLR
20:01 8.6 °C 1.7 °C 1020.2 hPa West 5.6 km/h 5.6 km/h 62 % 0.0 mm 0.0 W/m2 CLR
20:06 8.4 °C 1.8 °C 1020.2 hPa West 22.2 km/h 22.2 km/h 63 % 0.0 mm 0.0 W/m2 CLR
20:11 8.4 °C 1.7 °C 1020.2 hPa West 16.7 km/h 16.7 km/h 63 % 0.0 mm 0.0 W/m2 CLR
20:16 8.4 °C 1.7 °C 1020.2 hPa WNW 14.8 km/h 14.8 km/h 63 % 0.0 mm 0.0 W/m2 CLR
20:21 8.3 °C 1.9 °C 1020.5 hPa WNW 18.5 km/h 18.5 km/h 64 % 0.0 mm 0.0 W/m2 CLR
20:26 8.2 °C 1.8 °C 1020.5 hPa WNW 13.0 km/h 13.0 km/h 64 % 0.0 mm 0.0 W/m2 CLR
20:31 8.2 °C 1.8 °C 1020.5 hPa West 5.6 km/h 5.6 km/h 64 % 0.0 mm 0.0 W/m2 CLR
20:36 8.1 °C 1.7 °C 1020.5 hPa West 9.3 km/h 9.3 km/h 64 % 0.0 mm 0.0 W/m2 CLR
20:41 8.1 °C 1.7 °C 1020.5 hPa West 14.8 km/h 14.8 km/h 64 % 0.0 mm 0.0 W/m2 CLR
20:46 8.1 °C 1.7 °C 1020.5 hPa West 18.5 km/h 18.5 km/h 64 % 0.0 mm 0.0 W/m2 CLR
20:51 8.1 °C 1.7 °C 1020.5 hPa WNW 13.0 km/h 13.0 km/h 64 % 0.0 mm 0.0 W/m2 CLR
20:56 8.1 °C 1.4 °C 1020.5 hPa WNW 20.4 km/h 20.4 km/h 63 % 0.0 mm 0.0 W/m2 CLR
21:01 8.0 °C 1.8 °C 1020.9 hPa West 14.8 km/h 14.8 km/h 65 % 0.0 mm 0.0 W/m2 CLR
21:06 8.0 °C 1.4 °C 1020.9 hPa West 9.3 km/h 9.3 km/h 63 % 0.0 mm 0.0 W/m2 CLR
21:11 7.9 °C 1.6 °C 1020.9 hPa West 13.0 km/h 13.0 km/h 64 % 0.0 mm 0.0 W/m2 CLR
21:16 7.9 °C 1.6 °C 1020.9 hPa West 11.1 km/h 11.1 km/h 64 % 0.0 mm 0.0 W/m2 CLR
21:21 7.9 °C 1.6 °C 1020.9 hPa West 14.8 km/h 14.8 km/h 64 % 0.0 mm 0.0 W/m2 CLR
21:26 7.9 °C 1.5 °C 1020.9 hPa West 14.8 km/h 14.8 km/h 64 % 0.0 mm 0.0 W/m2 CLR
21:31 7.8 °C 1.4 °C 1020.9 hPa West 3.7 km/h   64 % 0.0 mm 0.0 W/m2 CLR
21:36 7.7 °C 1.6 °C 1020.9 hPa Calm     65 % 0.0 mm 0.0 W/m2 CLR
21:41 7.6 °C 1.4 °C 1021.2 hPa Calm     65 % 0.0 mm 0.0 W/m2 CLR
21:46 7.6 °C 1.4 °C 1021.2 hPa Calm     65 % 0.0 mm 0.0 W/m2 CLR
21:51 7.5 °C 1.3 °C 1021.2 hPa Calm     65 % 0.0 mm 0.0 W/m2 CLR
21:56 7.5 °C 1.3 °C 1021.2 hPa West 12.9 km/h 12.9 km/h 65 % 0.0 mm 0.0 W/m2 CLR
22:01 7.5 °C 1.6 °C 1021.6 hPa West 11.1 km/h 11.1 km/h 66 % 0.0 mm 0.0 W/m2 CLR
22:06 7.4 °C 1.4 °C 1021.2 hPa West 13.0 km/h 13.0 km/h 66 % 0.0 mm 0.0 W/m2 CLR
22:11 7.3 °C 1.4 °C 1021.2 hPa West 16.7 km/h 16.7 km/h 66 % 0.0 mm 0.0 W/m2 CLR
22:16 7.2 °C 1.5 °C 1021.2 hPa West 16.7 km/h 16.7 km/h 67 % 0.0 mm 0.0 W/m2 CLR
22:21 7.2 °C 1.5 °C 1021.2 hPa West 18.5 km/h 18.5 km/h 67 % 0.0 mm 0.0 W/m2 CLR
22:27 7.1 °C 1.6 °C 1021.2 hPa West 11.3 km/h 11.3 km/h 68 % 0.0 mm 0.0 W/m2 CLR
22:32 7.1 °C 1.6 °C 1021.6 hPa WNW 20.4 km/h 20.4 km/h 68 % 0.3 mm 0.0 W/m2 RA
22:37 7.0 °C 1.5 °C 1021.2 hPa West 14.8 km/h 14.8 km/h 68 % 0.3 mm 0.0 W/m2 CLR
22:42 6.9 °C 1.4 °C 1021.2 hPa West 24.1 km/h 24.1 km/h 68 % 0.3 mm 0.0 W/m2 CLR
22:47 6.9 °C 1.7 °C 1021.2 hPa West 16.1 km/h 16.1 km/h 69 % 0.3 mm 0.0 W/m2 CLR
22:52 6.9 °C 1.6 °C 1021.2 hPa West 18.5 km/h 18.5 km/h 69 % 0.3 mm 0.0 W/m2 CLR
22:57 6.9 °C 1.6 °C 1021.2 hPa West 11.3 km/h 12.7 km/h 69 % 0.3 mm 0.0 W/m2 CLR
23:02 6.9 °C 1.6 °C 1021.6 hPa West 18.5 km/h 18.5 km/h 69 % 0.3 mm 0.0 W/m2 CLR
23:07 6.8 °C 1.6 °C 1021.6 hPa West 9.7 km/h 9.7 km/h 69 % 0.3 mm 0.0 W/m2 CLR
23:12 6.8 °C 1.6 °C 1021.6 hPa West 18.5 km/h 18.5 km/h 69 % 0.3 mm 0.0 W/m2 CLR
23:17 6.8 °C 1.5 °C 1021.6 hPa West 14.8 km/h 14.8 km/h 69 % 0.3 mm 0.0 W/m2 CLR
23:22 6.7 °C 1.6 °C 1021.9 hPa West 11.1 km/h 11.1 km/h 70 % 0.3 mm 0.0 W/m2 CLR
23:27 6.7 °C 1.6 °C 1021.9 hPa Calm     70 % 0.3 mm 0.0 W/m2 CLR
23:32 6.6 °C 1.5 °C 1021.9 hPa West 11.3 km/h 11.3 km/h 70 % 0.0 mm 0.0 W/m2 CLR
23:37 6.6 °C 1.4 °C 1021.9 hPa West 12.9 km/h 12.9 km/h 70 % 0.0 mm 0.0 W/m2 CLR
23:42 6.6 °C 1.4 °C 1021.9 hPa West 9.3 km/h 9.3 km/h 70 % 0.0 mm 0.0 W/m2 CLR
23:47 6.6 °C 1.4 °C 1021.9 hPa West 13.0 km/h 13.0 km/h 70 % 0.0 mm 0.0 W/m2 CLR
23:52 6.5 °C 1.4 °C 1021.9 hPa West 13.0 km/h 13.0 km/h 70 % 0.0 mm 0.0 W/m2 CLR
23:57 6.4 °C 1.4 °C 1021.9 hPa West 13.0 km/h 13.0 km/h 70 % 0.0 mm 0.0 W/m2 CLR
Lo Temps de Massalio
Compliments of Weather Underground - 1.25 mb